CDT,Max TemperatureF,Mean TemperatureF,Min TemperatureF,Max Dew PointF,MeanDew PointF,Min DewpointF,Max Humidity, Mean Humidity, Min Humidity, Max Sea Level PressureIn, Mean Sea Level PressureIn, Min Sea Level PressureIn, Max VisibilityMiles, Mean VisibilityMiles, Min VisibilityMiles, Max Wind SpeedMPH, Mean Wind SpeedMPH, Max Gust SpeedMPH,PrecipitationIn, CloudCover, Events, WindDirDegrees
2011-10-1,57,49,41,41,37,32,87,66,41,30.29,30.23,30.15,10,10,10,14,8,22,0.00,3,,348
2011-10-2,64,48,33,43,35,28,100,67,26,30.29,30.25,30.17,10,7,0,8,4,,0.00,1,Fog,304
2011-10-3,73,55,37,45,41,36,93,63,33,30.22,30.19,30.16,10,10,10,12,4,,0.00,0,,317
2011-10-4,75,58,41,52,43,36,100,69,24,30.34,30.27,30.22,10,6,0,6,1,,0.00,3,Fog,148
2011-10-5,80,62,44,52,45,41,93,59,26,30.30,30.25,30.19,10,10,10,9,1,10,0.00,0,,189
2011-10-6,82,64,46,54,48,45,100,63,32,30.30,30.24,30.21,10,10,7,10,2,,0.00,0,,135
2011-10-7,84,67,50,54,50,46,87,52,30,30.34,30.28,30.24,10,10,10,15,7,22,0.00,0,,148
2011-10-8,82,66,51,55,51,45,88,60,30,30.36,30.31,30.27,10,10,10,15,5,21,0.00,0,,161
2011-10-9,80,63,46,54,48,45,93,61,30,30.38,30.32,30.23,10,10,7,12,2,10,0.00,0,,114
2011-10-10,78,64,50,52,48,45,94,62,30,30.24,30.17,30.07,10,10,10,12,4,20,0.00,0,,136
2011-10-11,78,64,50,54,51,48,94,65,36,30.06,30.01,29.91,10,10,5,8,1,,0.00,1,,118
2011-10-12,77,64,50,55,49,46,88,64,39,29.92,29.83,29.70,10,10,10,14,6,22,0.00,2,,127
2011-10-13,62,60,57,59,57,54,100,88,77,29.66,29.57,29.50,10,8,3,10,5,22,0.25,8,Rain,230
2011-10-14,62,53,44,45,42,37,93,68,42,29.72,29.64,29.57,10,10,10,23,12,34,0.00,3,,267
2011-10-15,60,51,42,41,37,32,87,60,34,29.91,29.86,29.76,10,10,10,26,14,36,0.00,0,,262
2011-10-16,60,54,48,45,39,32,72,58,36,29.93,29.83,29.78,10,10,10,16,8,23,0.00,2,Rain,249
2011-10-17,57,46,35,36,32,28,87,58,33,29.94,29.91,29.85,10,10,10,17,9,25,0.00,2,,254
2011-10-18,51,44,37,41,36,34,93,73,54,29.87,29.83,29.81,10,10,10,8,3,,0.00,3,Rain,269
2011-10-19,46,45,44,45,42,41,100,90,81,29.78,29.67,29.57,10,9,5,17,10,31,0.60,8,Rain,346
2011-10-20,46,44,41,41,37,34,93,78,62,29.84,29.62,29.50,10,10,7,17,14,29,0.08,8,Rain,297
2011-10-21,53,42,32,36,33,32,100,72,44,30.11,30.04,29.91,10,10,10,10,5,,0.00,0,,280
2011-10-22,66,49,32,39,35,30,100,68,32,30.11,30.07,30.01,10,10,10,16,4,21,0.00,0,,208
2011-10-23,68,50,33,45,39,32,100,69,33,30.03,29.98,29.92,10,10,7,14,3,18,0.00,1,,220
2011-10-24,62,54,46,50,40,30,94,64,30,30.14,30.04,29.87,10,10,10,17,8,24,0.04,1,Rain,271
2011-10-25,73,58,42,50,41,34,76,52,33,30.14,29.98,29.77,10,10,10,25,11,33,0.00,2,Rain,178
2011-10-26,62,54,46,52,46,43,94,81,55,29.94,29.86,29.74,10,9,2,14,9,20,0.00,7,Rain,345
2011-10-27,50,46,41,39,37,34,87,72,54,30.13,30.01,29.91,10,10,10,13,7,17,0.04,7,Rain,337
2011-10-28,53,42,30,39,31,25,100,74,35,30.21,30.16,30.09,10,8,0,9,2,,0.00,2,Fog,250
2011-10-29,53,42,32,34,30,23,93,66,33,30.11,30.07,30.03,10,10,10,14,4,20,0.00,2,,270
2011-10-30,57,44,30,41,32,27,87,67,38,30.14,30.07,29.98,10,10,7,24,8,37,0.00,3,Rain,168
2011-10-31,53,43,33,41,36,32,100,74,44,30.14,30.04,29.98,10,9,5,13,5,,0.04,3,Rain,253